Location: Trebic
(49.2170°N, 15.8830°E)
Time: 12:13:47
(UTC+02:00)

Transit 4A - Pass Details

Date: 03 September 2019
Orbit: 865 x 980 km, 66.8° (Epoch: 15 September)

Event Time Altitude Azimuth Distance (km) Brightness Sun altitude
Rises 14:42:15 0° 156° (SSE) 3,666 11.3 42.7°
Reaches altitude 10° 14:46:01 10° 134° (SE) 2,726 10.5 42.3°
Maximum altitude 14:49:23 15° 102° (ESE) 2,382 10.0 42.0°
Drops below altitude 10° 14:52:45 10° 70° (ENE) 2,727 10.1 41.6°
Sets 14:56:29 0° 48° (NE) 3,667 10.6 41.2°
